TimeEST,TemperatureF,Dew PointF,Humidity,Sea Level PressureIn,VisibilityMPH,Wind Direction,Wind SpeedMPH,Gust SpeedMPH,PrecipitationIn,Events,Conditions,WindDirDegrees,DateUTC
12:53 AM,30.0,27.0,88,30.21,10.0,Calm,Calm,-,N/A,,Mostly Cloudy,0,2011-12-09 05:53:00
1:53 AM,34.0,25.0,70,30.20,10.0,SW,5.8,-,N/A,,Overcast,220,2011-12-09 06:53:00
2:53 AM,34.0,25.0,70,30.19,10.0,SW,4.6,-,N/A,,Overcast,220,2011-12-09 07:53:00
3:53 AM,33.1,26.1,75,30.19,10.0,SW,4.6,-,N/A,,Mostly Cloudy,230,2011-12-09 08:53:00
4:53 AM,33.1,26.1,75,30.20,10.0,WSW,4.6,-,N/A,,Mostly Cloudy,240,2011-12-09 09:53:00
5:53 AM,33.1,27.0,78,30.21,10.0,WSW,3.5,-,N/A,,Overcast,240,2011-12-09 10:53:00
6:53 AM,33.1,27.0,78,30.22,10.0,SW,4.6,-,N/A,,Overcast,230,2011-12-09 11:53:00
7:53 AM,33.1,28.0,82,30.22,10.0,Calm,Calm,-,N/A,,Overcast,0,2011-12-09 12:53:00
8:53 AM,34.0,28.0,79,30.24,10.0,SW,3.5,-,N/A,,Overcast,220,2011-12-09 13:53:00
9:53 AM,35.1,28.0,76,30.26,10.0,WSW,5.8,-,N/A,,Overcast,240,2011-12-09 14:53:00
10:53 AM,36.0,28.9,76,30.27,10.0,West,6.9,-,N/A,,Overcast,270,2011-12-09 15:53:00
11:53 AM,37.9,30.0,73,30.27,10.0,NW,5.8,-,N/A,,Overcast,310,2011-12-09 16:53:00
12:17 PM,37.4,30.2,75,30.25,10.0,West,6.9,-,N/A,,Overcast,280,2011-12-09 17:17:00
12:53 PM,37.0,30.0,76,30.27,10.0,Variable,6.9,-,N/A,,Overcast,0,2011-12-09 17:53:00
1:53 PM,37.0,30.0,76,30.27,10.0,WNW,5.8,-,N/A,,Overcast,300,2011-12-09 18:53:00
2:46 PM,35.6,28.4,75,30.27,9.0,NW,8.1,-,N/A,,Overcast,310,2011-12-09 19:46:00
2:53 PM,35.1,28.9,78,30.29,9.0,NW,6.9,-,N/A,,Overcast,320,2011-12-09 19:53:00
3:00 PM,35.6,28.4,75,30.27,8.0,NW,5.8,-,N/A,,Overcast,320,2011-12-09 20:00:00
3:43 PM,35.6,26.6,70,30.28,10.0,Variable,5.8,-,N/A,,Overcast,0,2011-12-09 20:43:00
3:53 PM,35.1,27.0,72,30.31,10.0,WNW,5.8,-,N/A,,Overcast,290,2011-12-09 20:53:00
4:53 PM,35.1,26.1,70,30.33,10.0,WNW,5.8,-,N/A,,Overcast,300,2011-12-09 21:53:00
5:53 PM,33.1,25.0,72,30.35,10.0,WNW,4.6,-,N/A,,Overcast,290,2011-12-09 22:53:00
6:53 PM,30.9,23.0,72,30.38,10.0,Variable,3.5,-,N/A,,Overcast,0,2011-12-09 23:53:00
7:53 PM,30.0,24.1,79,30.41,10.0,NW,6.9,-,N/A,,Overcast,310,2011-12-10 00:53:00
8:53 PM,28.0,19.9,72,30.43,10.0,Calm,Calm,-,N/A,,Clear,0,2011-12-10 01:53:00
9:53 PM,27.0,19.9,75,30.44,10.0,NW,3.5,-,N/A,,Clear,310,2011-12-10 02:53:00
10:53 PM,25.0,19.0,78,30.45,10.0,Calm,Calm,-,N/A,,Clear,0,2011-12-10 03:53:00
11:53 PM,25.0,19.0,78,30.45,10.0,Calm,Calm,-,N/A,,Clear,0,2011-12-10 04:53:00